#timestamp,LO_Frequency,Hit,StdDev 
1549548015.5,286047001.5,N
1549548035.3,286047002.5,N
1549548055.1,286047002.3,N
1549548075.9,286046999.8,N
1549548095.7,286047000.1,N
1549548115.6,286047000.5,N
1549548135.4,286046999.1,N
1549548155.2,286046996.9,N
1549548175.1,286046999.6,N
1549548176.0,286046999.6,N
1549548195.8,286046996.9,N
1549548215.6,286046995.3,N
1549548235.5,286046997.1,N
1549548255.3,286046995.3,N
1549548275.2,286046995.6,N
1549548295.9,286046995.6,N
1549548315.7,286046995.8,N
1549548335.6,286046993.8,N
1549548355.4,286046994.9,N
1549548375.2,286046995.3,N
1549548395.1,286046998.0,N
1549548396.0,286046998.0,N
1549548415.8,286046995.7,N
1549548435.7,286046996.1,N
1549548455.5,286046996.0,N
1549548475.3,286046992.2,N
1549548495.2,286046994.4,N
1549548515.0,286046994.2,N
1549548515.9,286046994.2,N
1549548535.8,286046991.9,N
1549548555.6,286046991.7,N
1549548575.4,286046994.2,N
1549548595.3,286046993.3,N
1549548615.1,286046994.5,N
1549548635.9,286046991.8,Y
1549548655.7,286046999.1,P
1549548675.5,286046999.0,N
1549548695.4,286046999.1,N
1549548715.2,286046998.9,N
1549548735.0,286046998.5,N
1549548735.9,286046998.5,N
1549548755.8,286046999.3,N
1549548775.6,286046997.2,N
1549548795.5,286046998.0,N
1549548815.3,286046997.7,N
1549548835.1,286046997.5,N
1549548855.9,286046999.2,N
1549548875.7,286046996.8,Y
1549548895.5,286046998.3,P
1549548915.4,286047000.4,P
1549548935.2,286046999.8,N
1549548955.1,286047002.8,N
1549548956.0,286047002.8,N
1549548975.8,286047000.4,N
1549548995.6,286047000.2,N
1549549015.5,286046999.7,N
1549549035.3,286047002.2,N
1549549055.1,286047004.0,N
1549549075.9,286047003.0,N
1549549095.7,286047000.2,N
1549549115.6,286047000.4,N
1549549135.4,286047000.0,N
1549549155.2,286047000.8,N
1549549175.1,286047000.8,N
1549549176.0,286047000.8,N
1549549195.8,286047001.8,N
1549549215.6,286047003.6,N
1549549235.5,286047001.3,N
1549549255.3,286047004.4,N
1549549275.2,286047003.8,N
1549549295.9,286047002.9,N
1549549315.7,286047003.8,N
1549549335.6,286047001.6,N
1549549355.4,286047000.2,N
1549549375.2,286047002.7,N
1549549395.1,286047003.1,N
1549549396.0,286047003.1,N
1549549415.8,286047001.3,N
1549549435.7,286047003.8,N
1549549455.5,286047001.4,N
1549549475.3,286047001.9,N
1549549495.2,286047002.0,N
1549549515.0,286047003.2,N
1549549515.9,286047003.2,N
1549549535.7,286047003.1,N
1549549555.6,286047005.8,Y
1549549575.4,286047003.2,P
1549549595.3,286047002.5,P
1549549615.1,286047003.8,P
1549549635.8,286047003.6,Y
1549549655.7,286046998.5,P
1549549675.5,286047000.9,N
1549549695.4,286047000.8,N
1549549715.2,286047001.0,N
1549549735.0,286046999.9,N
1549549735.9,286046999.9,N
1549549755.8,286047002.8,N
1549549775.6,286047002.0,N
1549549795.4,286047001.9,N
1549549815.3,286047002.6,N
1549549835.1,286047002.6,N
1549549855.9,286047002.8,N
1549549875.7,286047002.3,N
1549549895.5,286047001.6,N
1549549915.4,286047002.6,N
1549549935.2,286046999.8,N
1549549955.0,286047002.3,N
1549549955.9,286047002.3,N
1549549975.8,286047002.0,N
1549549995.6,286047002.7,N
1549550015.5,286047001.4,N
1549550035.3,286047001.3,N
1549550055.1,286047001.7,N
1549550075.9,286047004.1,Y
1549550095.7,286047001.6,P
1549550115.6,286047004.3,P
1549550135.4,286047004.3,P
1549550155.2,286047003.7,N
1549550175.1,286047003.7,N
1549550176.0,286047003.7,Y
1549550195.8,286047001.0,P
1549550215.7,286046998.1,N
1549550235.5,286046998.7,N
1549550255.3,286047000.5,N
1549550275.2,286047000.6,N
1549550295.0,286047001.0,N
1549550295.9,286047001.0,N
1549550315.7,286046998.2,N
1549550335.6,286047000.7,N
1549550355.4,286046998.2,N
1549550375.3,286047000.4,N
1549550395.1,286046999.6,N
1549550396.0,286046999.6,N
1549550415.8,286047000.4,N
1549550435.7,286047001.0,N
1549550455.5,286047000.7,N
1549550475.3,286046999.9,N
1549550495.2,286046998.6,N
1549550515.0,286046998.9,N
1549550515.9,286046998.9,N
1549550535.8,286047000.3,N
1549550555.6,286047002.7,N
1549550575.4,286047000.1,N
1549550595.7,286046999.7,N
1549550615.6,286047002.4,N
1549550635.4,286047001.9,N
1549550655.3,286047002.6,N
1549550675.1,286047000.0,N
1549550695.8,286047002.3,N
1549550715.7,286047002.2,N
1549550735.5,286047002.0,N
1549550755.4,286047004.1,Y
1549550775.2,286047001.7,P
1549550795.0,286047002.8,P
1549550795.9,286047002.8,N
1549550815.8,286046999.7,N
1549550835.6,286047002.1,N
1549550855.5,286047001.3,N
1549550875.3,286047003.7,Y
1549550895.1,286047002.1,P
1549550915.9,286047002.4,P
1549550935.7,286047002.6,P
1549550955.5,286047002.6,Y
1549550975.4,286046996.6,P
1549550995.2,286046996.7,N
1549551015.1,286046997.9,N
1549551016.0,286046997.9,N
1549551035.8,286046997.3,N
1549551055.6,286046997.3,N
1549551075.5,286046998.9,N
1549551095.3,286046996.9,N
1549551115.1,286046997.0,N
1549551135.9,286046996.9,N
1549551155.7,286046999.0,N
1549551175.6,286046999.2,N
1549551195.4,286046996.9,N
1549551215.2,286046998.8,N
1549551235.1,286046999.2,N
1549551236.0,286046999.2,N
1549551255.8,286046998.4,N
1549551275.7,286046998.6,N
1549551295.5,286046998.2,N
1549551315.3,286046998.7,N
1549551335.2,286046999.3,N
1549551355.9,286046999.5,N
1549551375.7,286046998.7,N
1549551395.6,286046998.3,N
1549551415.4,286046999.3,N
1549551435.3,286046998.7,N
1549551455.1,286046999.3,N
1549551456.0,286046999.3,N
1549551475.8,286046996.7,N
1549551495.7,286046996.8,N
1549551515.5,286046999.1,N
1549551535.3,286046998.9,N
1549551555.2,286046999.4,N
1549551575.0,286046999.1,N
1549551575.9,286046999.1,N
1549551595.8,286046999.1,N
